Precipitable_Water
1.33 1.28 1.27 1.35 1.41 1.44 1.39 1.29 1.27 1.29 1.14 1.03 0.93 0.92 0.97 0.96 0.97 1.04 1.14 1.26 1.53 1.52 1.48 1.37 1.37 1.27 1.06 0.96 0.94 0.96 0.92 0.97 1.03 0.97 0.93 0.93 0.86 0.81 0.77 0.78 0.79 0.80 0.82
1.62 1.47 1.34 1.30 1.32 1.40 1.41 1.29 1.24 1.27 1.22 1.14 0.94 0.89 0.89 0.92 0.93 1.00 1.11 1.22 1.24 1.46 1.44 1.40 1.30 1.23 1.09 1.02 0.94 0.90 1.05 0.92 0.90 0.91 0.90 0.88 0.84 0.77 0.78 0.78 0.79 0.79 0.83
1.52 1.48 1.53 1.46 1.38 1.37 1.37 1.33 1.28 1.24 1.21 1.21 1.03 0.88 0.81 0.85 0.87 0.87 1.02 1.14 1.20 1.18 1.26 1.31 1.34 1.17 1.10 0.98 0.93 0.87 1.01 0.97 0.89 0.88 0.86 0.84 0.80 0.73 0.76 0.77 0.77 0.79 0.79
1.33 1.33 1.34 1.34 1.40 1.38 1.36 1.35 1.30 1.22 1.16 1.16 1.08 1.01 0.88 0.83 0.78 0.85 0.90 1.00 1.05 1.13 1.15 1.18 1.13 1.06 1.01 0.94 0.89 0.84 1.03 0.94 0.85 0.83 0.79 0.75 0.74 0.71 0.72 0.75 0.76 0.76 0.78
1.31 1.32 1.30 1.31 1.33 1.32 1.33 1.32 1.33 1.28 1.14 1.14 1.15 1.10 1.03 0.98 0.85 0.84 0.87 0.88 0.92 0.94 0.99 1.00 0.98 0.95 0.96 0.89 0.85 0.94 1.07 0.91 0.86 0.81 0.76 0.71 0.70 0.70 0.72 0.71 0.73 0.75 0.75
1.18 1.25 1.29 1.32 1.32 1.29 1.29 1.32 1.32 1.36 1.23 1.10 1.15 1.12 1.08 1.08 1.04 0.94 0.91 0.89 0.82 0.78 0.83 0.87 0.88 0.91 0.92 0.82 0.93 1.18 1.08 0.94 0.80 0.77 0.72 0.70 0.70 0.71 0.70 0.67 0.68 0.69 0.70
1.11 1.15 1.18 1.22 1.23 1.20 1.24 1.29 1.29 1.27 1.21 1.17 1.02 1.06 1.09 1.12 1.07 1.07 1.05 0.93 0.81 0.79 0.78 0.78 0.83 0.91 0.90 0.87 0.96 1.15 1.10 0.97 0.82 0.75 0.67 0.67 0.66 0.68 0.70 0.67 0.67 0.67 0.67
1.05 1.11 1.15 1.15 1.15 1.13 1.18 1.20 1.23 1.21 1.20 1.16 1.01 0.93 0.85 0.98 1.05 1.08 1.06 1.01 0.93 0.89 0.81 0.78 0.82 0.94 0.98 0.95 1.02 1.07 1.10 1.03 0.92 0.79 0.79 0.74 0.64 0.65 0.67 0.67 0.66 0.66 0.65
1.00 1.06 1.12 1.20 1.15 1.12 1.08 1.14 1.18 1.17 1.12 1.18 1.15 0.94 0.82 0.75 0.95 1.05 1.05 1.04 1.00 0.94 0.90 0.86 0.83 0.89 0.97 0.94 0.93 0.96 0.97 1.00 0.98 0.93 0.85 0.83 0.80 0.72 0.67 0.68 0.68 0.67 0.64
0.88 0.95 1.03 1.10 1.17 1.16 1.05 1.09 1.19 1.22 1.21 1.08 1.20 1.17 1.07 0.96 0.87 0.87 1.04 1.02 1.05 1.00 0.97 0.90 0.86 0.90 0.95 0.94 0.92 0.89 0.93 1.00 1.04 0.99 0.94 0.90 0.86 0.83 0.78 0.70 0.69 0.67 0.64
0.92 0.90 0.91 0.93 0.97 1.03 1.13 1.05 1.07 1.15 1.19 1.14 1.10 1.23 1.13 1.13 1.15 0.97 0.88 0.98 1.08 1.11 1.08 1.07 1.03 0.94 0.92 0.93 0.93 0.93 0.94 0.97 0.96 0.94 0.99 0.98 0.93 0.88 0.86 0.80 0.71 0.68 0.65
0.86 0.96 0.94 0.92 0.91 0.93 0.98 1.08 1.05 1.06 1.11 1.13 1.11 1.11 1.14 1.04 1.04 1.05 0.95 1.02 1.05 1.13 1.19 1.20 1.17 1.17 1.17 1.11 1.02 0.97 0.98 0.98 0.96 0.95 0.95 0.98 0.98 0.94 0.88 0.86 0.78 0.71 0.66
0.78 0.87 0.93 0.89 0.88 0.89 0.93 1.02 1.05 1.06 1.04 1.03 1.09 1.07 1.11 1.16 1.21 1.22 1.13 1.06 1.06 1.16 1.17 1.24 1.25 1.26 1.26 1.25 1.26 1.22 1.20 1.16 1.13 1.09 1.09 1.07 1.06 1.05 1.01 0.92 0.86 0.83 0.76
0.75 0.81 0.87 0.89 0.91 0.95 0.91 0.95 1.02 1.01 1.02 0.99 1.01 1.11 1.10 1.14 1.18 1.17 1.12 1.13 1.03 1.08 1.14 1.16 1.26 1.27 1.27 1.26 1.27 1.27 1.24 1.24 1.20 1.17 1.15 1.15 1.13 1.09 1.06 1.04 0.96 0.91 0.89
0.73 0.78 0.83 0.92 0.92 0.95 0.92 0.91 0.98 0.95 0.96 0.99 0.99 1.05 1.17 1.16 1.24 1.20 1.24 1.20 1.08 0.93 0.96 1.13 1.13 1.26 1.26 1.23 1.22 1.20 1.19 1.20 1.21 1.19 1.15 1.11 1.08 1.08 0.97 0.94 0.91 0.87 0.85
0.65 0.69 0.76 0.85 0.99 0.99 0.96 0.97 0.98 0.95 0.97 0.98 1.01 1.00 1.08 1.10 1.15 1.18 1.22 1.22 1.19 1.09 0.97 1.12 1.16 1.20 1.23 1.18 1.15 1.13 1.11 1.11 1.11 1.08 1.02 0.98 0.93 0.88 0.88 0.87 0.88 0.85 0.84
0.57 0.63 0.71 0.72 0.95 1.00 0.97 0.97 0.99 1.01 0.95 0.96 1.00 1.02 0.99 1.09 1.07 1.14 1.16 1.20 1.19 1.15 1.01 1.08 1.17 1.17 1.14 1.13 1.09 1.02 1.02 0.99 0.97 0.96 0.94 0.92 0.91 0.89 0.88 0.87 0.87 0.87 0.85
0.53 0.55 0.64 0.73 0.97 0.96 0.95 0.95 0.96 0.94 0.94 0.95 0.99 1.00 1.02 1.07 1.09 1.11 1.13 1.20 1.13 1.15 1.08 1.01 1.11 1.08 1.06 1.08 1.02 0.93 0.92 0.93 0.91 0.91 0.90 0.91 0.92 0.91 0.90 0.88 0.86 0.85 0.87
0.50 0.57 0.61 0.71 0.88 0.98 0.94 0.94 0.94 0.95 0.95 0.98 0.99 0.98 1.02 1.06 1.03 1.07 1.08 1.11 1.12 1.13 1.12 1.08 1.02 1.06 0.96 0.94 0.93 0.89 0.89 0.90 0.90 0.88 0.89 0.92 0.92 0.90 0.90 0.89 0.89 0.85 0.86
0.50 0.56 0.61 0.70 0.80 0.91 0.98 0.97 0.97 0.97 1.00 1.00 1.01 1.03 1.04 1.03 1.02 1.05 1.07 1.06 1.08 1.05 1.02 0.95 0.92 0.92 0.93 0.93 0.92 0.81 0.78 0.83 0.84 0.85 0.85 0.87 0.86 0.87 0.87 0.91 0.89 0.87 0.88
0.49 0.52 0.58 0.71 0.74 0.77 0.92 1.01 1.04 1.04 1.01 0.99 1.02 1.02 1.01 1.02 1.03 1.05 1.01 1.00 0.99 0.94 0.91 0.85 0.80 0.81 0.79 0.79 0.77 0.80 0.77 0.80 0.81 0.83 0.79 0.77 0.78 0.80 0.80 0.84 0.88 0.87 0.89
0.51 0.56 0.56 0.58 0.64 0.75 0.89 1.02 1.04 1.05 1.04 1.03 0.99 1.00 1.02 1.02 1.04 1.05 1.03 1.00 0.97 0.88 0.84 0.81 0.78 0.73 0.75 0.78 0.80 0.76 0.74 0.69 0.62 0.77 0.72 0.73 0.81 0.78 0.80 0.83 0.85 0.87 0.88
0.49 0.51 0.58 0.57 0.65 0.70 0.83 0.92 1.00 1.01 0.98 0.96 0.94 0.98 0.99 1.03 1.04 1.02 1.00 0.97 0.97 0.98 0.96 0.89 0.77 0.78 0.78 0.79 0.79 0.75 0.71 0.69 0.66 0.76 0.77 0.71 0.80 0.74 0.82 0.85 0.87 0.86 0.86
0.47 0.50 0.52 0.58 0.68 0.70 0.77 0.84 0.92 0.93 0.92 0.92 0.93 0.90 0.91 0.93 0.94 0.93 0.92 0.90 0.90 0.92 0.93 0.92 0.90 0.88 0.85 0.86 0.83 0.80 0.78 0.79 0.80 0.82 0.80 0.68 0.76 0.75 0.80 0.82 0.85 0.85 0.85
0.44 0.47 0.52 0.53 0.59 0.65 0.71 0.76 0.83 0.84 0.87 0.87 0.89 0.89 0.89 0.87 0.90 0.92 0.90 0.86 0.86 0.87 0.95 0.95 0.96 0.95 0.93 0.91 0.90 0.86 0.78 0.75 0.69 0.71 0.83 0.76 0.76 0.75 0.77 0.77 0.85 0.86 0.88
0.43 0.44 0.46 0.53 0.58 0.60 0.69 0.73 0.77 0.79 0.79 0.81 0.83 0.83 0.85 0.85 0.89 0.89 0.86 0.85 0.78 0.84 0.87 0.90 0.90 0.91 0.91 0.90 0.92 0.90 0.84 0.73 0.72 0.67 0.79 0.73 0.73 0.74 0.65 0.74 0.78 0.80 0.83
Wind_Speed
33 31 29 29 29 28 27 25 24 24 23 22 21 20 20 18 17 17 15 14 14 17 19 19 18 17 15 13 13 13 13 12 11 10 9 8 7 7 6 6 6 6 7
32 31 31 30 30 29 28 27 27 26 25 24 23 22 22 21 20 20 19 17 16 17 18 19 19 18 17 16 14 14 14 14 14 13 11 10 10 9 8 8 8 8 8
33 30 30 32 32 31 30 29 28 28 28 26 25 24 24 24 22 22 23 21 20 20 19 20 20 20 19 18 19 18 18 16 15 14 13 12 12 11 10 10 10 10 10
36 35 35 35 34 33 32 31 30 30 30 30 28 26 25 25 25 25 25 25 24 23 23 23 23 22 22 21 20 20 19 17 17 16 15 14 13 13 12 12 11 11 11
40 38 36 36 36 36 35 34 32 31 31 32 31 29 28 26 26 26 26 26 27 27 27 26 26 25 24 23 22 21 21 19 18 17 17 16 15 15 14 14 13 13 13
43 41 39 37 37 36 37 36 35 33 32 33 32 31 30 29 27 27 27 27 26 26 27 27 28 27 26 24 23 23 22 21 20 19 18 18 17 17 16 16 16 16 16
45 44 43 41 39 38 38 38 37 36 34 34 32 31 30 30 30 29 28 28 27 26 26 26 27 27 26 24 24 26 24 23 21 20 20 20 19 19 19 18 18 19 18
47 46 45 44 42 41 39 39 39 37 37 37 34 32 30 30 31 31 30 30 29 28 27 27 27 27 28 26 26 26 26 25 24 23 22 21 21 21 21 21 21 21 21
48 48 47 45 45 44 42 41 40 40 38 39 38 34 31 31 30 31 32 32 32 31 30 29 28 28 29 29 28 28 29 27 26 25 24 23 23 23 23 23 23 23 23
50 50 49 48 46 46 45 43 42 41 40 39 39 39 35 33 31 30 33 33 33 33 32 30 30 30 30 30 29 29 30 29 28 27 27 27 26 25 25 25 25 25 25
53 52 52 52 51 49 47 47 45 44 43 41 41 38 38 35 32 30 31 33 34 34 34 32 31 31 31 31 30 30 30 30 29 29 28 28 28 28 28 28 27 27 27
53 55 55 54 53 53 52 49 48 47 45 43 42 42 40 38 35 33 32 33 33 35 36 35 34 33 33 32 32 31 31 31 31 30 30 30 30 29 29 29 29 29 29
54 54 56 56 56 55 55 52 50 49 47 45 44 44 43 41 37 34 32 31 31 34 34 37 36 36 34 33 34 33 33 33 33 32 32 32 31 31 31 30 30 31 31
54 55 55 58 58 56 56 55 53 51 50 49 47 45 44 44 43 42 34 31 29 29 34 34 37 37 36 35 34 35 35 35 35 34 34 33 33 33 33 33 33 33 33
55 55 55 56 57 58 57 57 55 53 52 51 50 48 46 44 43 44 38 38 33 30 27 31 33 34 36 35 35 36 36 36 36 36 35 35 34 35 35 35 35 35 35
53 55 56 57 56 58 57 56 55 54 52 52 50 50 48 46 44 43 42 41 39 36 31 31 30 29 30 34 35 36 36 36 37 37 36 37 37 37 37 37 37 37 37
49 52 54 57 59 58 57 56 54 53 53 52 51 49 49 47 45 44 44 43 39 38 36 32 31 29 30 30 33 35 36 37 36 36 37 37 38 38 38 38 38 38 38
47 50 52 53 57 59 58 56 55 54 52 51 50 49 47 46 45 43 42 41 41 41 39 37 34 33 33 32 32 33 34 35 36 37 38 38 38 39 40 40 40 40 40
41 43 45 51 49 56 57 57 56 53 53 51 50 48 47 46 44 43 43 42 41 41 37 35 35 34 34 34 34 35 35 36 37 38 38 39 40 40 41 42 42 42 43
32 36 39 42 46 46 55 55 54 52 51 50 49 47 46 45 44 43 42 41 41 41 41 41 39 38 36 36 36 36 36 37 37 38 39 39 40 41 42 43 44 44 44
26 29 36 32 40 44 42 50 50 50 49 47 46 45 44 44 43 43 42 41 40 40 40 40 39 38 37 36 36 36 37 37 39 39 40 41 42 43 44 45 45 46 45
21 21 29 34 34 38 33 39 47 49 47 45 44 43 43 42 42 41 41 41 41 40 39 39 38 38 38 38 38 37 38 38 39 41 42 42 42 44 44 45 45 45 45
19 24 22 27 28 39 32 30 39 44 43 41 41 40 40 40 40 40 40 40 40 40 39 39 38 38 39 39 40 40 41 40 40 40 39 41 42 44 44 44 45 45 46
18 20 23 21 26 30 36 33 35 37 38 38 38 38 39 39 39 38 38 38 39 39 39 39 40 39 40 39 40 40 40 40 40 41 41 42 42 43 43 43 43 44 44
16 19 22 25 27 27 29 29 29 32 33 34 34 35 35 36 36 38 38 39 39 40 40 41 41 41 41 40 40 40 40 40 41 41 41 41 40 41 41 42 41 43 43
12 16 19 22 24 25 25 27 29 30 29 31 31 31 31 33 33 34 34 36 38 38 39 39 40 40 39 39 39 39 39 39 39 38 39 39 38 37 37 37 38 40 41
Wind_Direction
228 228 228 228 229 229 229 230 228 226 224 222 222 220 219 220 219 216 213 211 205 204 204 204 204 209 214 215 221 225 227 225 227 233 239 245 254 257 256 257 260 264 270
229 224 229 230 230 229 230 231 230 228 226 224 225 224 223 224 224 220 217 215 210 207 208 211 215 218 224 225 228 234 232 232 235 238 242 249 254 256 255 259 263 267 271
241 235 232 231 231 231 231 231 231 229 228 227 227 227 227 227 226 226 223 221 220 219 219 221 222 226 230 235 240 242 233 234 238 241 244 249 251 253 256 260 264 268 273
237 237 236 234 233 233 232 232 232 231 230 229 229 229 230 230 230 228 227 227 227 227 228 230 232 234 236 242 244 238 231 234 241 241 246 249 250 252 256 260 264 269 273
237 237 237 236 235 234 233 233 232 232 231 230 230 231 231 233 232 230 230 230 231 234 234 234 236 240 241 244 241 232 229 237 240 245 248 248 250 253 256 260 264 269 273
237 237 237 236 235 235 233 232 232 233 233 231 229 231 233 233 233 233 230 231 234 236 236 237 241 240 239 241 235 229 233 239 245 246 248 249 251 254 257 261 265 269 273
237 237 237 236 236 235 234 233 233 232 233 230 229 231 234 234 234 231 232 234 235 237 237 239 237 235 235 236 237 234 236 241 245 247 249 251 253 256 258 262 266 269 272
237 236 236 236 235 235 234 233 232 233 233 230 231 231 234 235 234 234 235 235 237 238 239 239 237 236 235 238 236 238 239 243 246 248 250 253 255 257 260 263 266 269 272
237 236 235 235 234 234 234 233 232 231 233 231 231 232 233 236 236 236 237 237 237 238 240 239 239 238 236 238 240 241 241 244 246 249 251 253 256 260 261 264 266 269 272
237 236 235 234 233 233 233 233 233 232 232 232 231 232 236 236 236 239 238 237 238 238 239 241 241 240 239 240 242 243 241 244 246 249 252 254 257 261 263 264 266 269 272
237 236 235 235 234 233 233 232 232 232 232 232 233 230 234 237 235 239 240 238 239 239 240 241 241 241 241 241 243 243 243 244 247 251 253 255 257 261 263 265 266 268 271
238 236 236 235 235 234 233 233 232 232 232 233 233 233 233 235 236 240 242 239 240 241 240 241 242 242 243 243 244 244 244 246 249 251 254 256 259 261 263 265 266 269 271
239 237 236 236 235 234 232 232 232 232 231 232 232 234 235 235 234 233 239 242 242 242 242 242 243 243 244 244 245 246 247 248 250 252 255 258 259 261 263 265 268 269 272
238 238 239 236 234 233 231 230 231 232 232 233 233 234 234 236 239 237 241 240 240 240 241 243 242 242 243 245 246 247 248 250 251 253 255 258 260 262 263 265 269 270 271
238 238 239 236 234 232 230 229 230 231 232 232 233 233 234 237 238 237 241 240 243 244 247 241 243 244 243 245 247 248 250 251 252 254 256 258 260 263 265 266 268 270 271
240 239 238 234 232 229 228 227 229 230 230 231 232 232 234 236 237 238 239 239 243 245 247 242 244 244 245 244 248 250 251 252 253 254 256 259 261 263 265 268 269 270 270
241 239 236 233 230 228 227 226 227 228 229 229 230 231 233 235 236 238 238 237 242 242 244 246 246 248 250 251 251 250 252 253 254 255 258 260 262 264 266 268 269 271 271
242 239 235 232 228 227 225 224 225 227 227 228 228 230 231 233 234 236 237 236 241 240 244 245 246 249 251 252 254 255 255 255 255 258 260 262 263 264 266 268 270 271 272
238 234 231 227 227 224 223 224 224 225 225 226 227 228 230 231 233 235 237 237 238 240 240 244 248 250 253 254 255 257 257 258 259 260 261 263 265 266 267 269 269 271 272
234 230 225 225 223 225 221 221 221 222 223 224 226 227 228 230 232 234 235 237 238 240 242 248 251 252 255 255 256 258 259 259 261 261 263 265 267 268 269 269 270 272 273
229 225 220 218 217 220 221 213 217 218 220 221 223 225 228 230 232 233 235 236 238 240 243 247 250 252 253 254 257 259 260 262 263 264 266 267 269 269 271 271 271 272 271
228 219 218 218 216 215 214 201 209 213 216 219 222 224 227 228 230 232 234 237 239 241 244 247 249 252 254 255 257 259 260 263 266 266 267 268 269 271 273 271 272 271 271
219 217 213 211 212 214 213 204 205 209 213 218 220 222 225 227 229 232 234 237 240 243 245 247 250 252 254 256 259 260 262 263 265 267 269 270 271 273 272 273 271 272 271
225 217 215 213 209 209 211 217 211 209 210 216 219 222 225 228 231 232 234 237 241 243 245 249 251 254 257 259 260 262 263 264 265 267 269 271 272 274 273 272 272 272 272
224 222 220 216 210 215 210 202 209 207 210 214 219 223 224 227 230 234 238 241 244 246 248 251 253 256 257 258 260 262 262 264 266 268 269 271 273 274 275 273 273 273 273
231 219 218 216 214 210 208 209 206 209 211 213 216 221 224 228 232 235 239 244 246 248 250 251 253 254 256 258 259 261 263 263 265 268 269 269 272 273 277 276 276 274 273